RH
11 10 9 9 9 8 8 8 8 7 7 9 11 13 14 15 16 16 17 17 17 16 15 15 14 12 10 10 11 11 11 10 9 10 12 12 12 13 13 12 11 10 10 9 10 13 12 13 13 13 12 12 12 11 12 12 13 12 12 12 14 16 15 13 14 16 14 13 16 15 15 13 15 23 25 27 25 29 43 42 43 51 54 60 66 66 64 61
11 11 10 9 8 7 7 7 7 7 7 8 9 11 13 13 14 15 16 16 17 17 16 15 15 14 13 11 11 12 11 11 11 11 11 12 12 13 12 12 11 10 10 9 11 14 13 13 13 13 13 13 13 12 12 13 13 13 14 13 11 13 15 15 16 16 15 15 18 16 14 14 16 26 29 29 30 32 46 50 48 54 57 61 67 68 64 56
11 10 10 9 8 8 7 7 8 8 7 7 7 9 10 12 13 14 15 16 16 17 17 17 16 15 15 15 12 12 12 13 16 15 14 14 13 13 13 12 11 11 10 9 11 13 13 13 13 14 14 14 15 14 12 12 14 13 14 15 12 12 13 17 18 17 18 17 18 16 14 14 15 23 30 33 37 37 46 53 54 59 62 62 64 63 57 51
10 10 10 10 9 8 8 8 8 8 7 7 7 7 8 10 11 13 14 15 16 17 17 17 17 16 17 17 16 15 15 19 21 19 18 17 14 13 13 12 11 11 10 10 12 13 13 17 18 17 17 16 14 13 12 12 15 15 13 13 13 12 14 17 20 19 19 18 17 16 13 13 13 17 26 33 41 45 51 54 56 63 65 62 58 55 51 47
10 10 9 10 9 9 8 8 8 8 8 7 7 7 7 7 9 11 12 14 15 17 17 17 18 18 19 19 20 19 20 26 26 24 22 18 16 14 13 12 12 11 10 11 13 13 15 20 21 19 18 16 13 12 12 12 15 16 13 12 11 13 17 18 21 20 18 17 16 16 13 12 13 14 20 27 35 42 47 51 57 63 64 62 58 51 48 46
9 9 9 9 9 9 9 9 9 9 8 8 7 7 7 7 7 8 10 13 15 16 17 18 19 20 22 21 21 24 26 29 29 29 26 22 20 17 14 13 13 11 11 13 14 14 16 19 20 18 18 16 14 12 13 14 15 16 15 12 11 13 17 20 24 21 15 15 15 15 13 12 13 14 15 20 29 36 41 48 56 63 64 62 58 52 50 49
9 9 8 9 8 9 9 9 9 9 8 9 8 7 7 7 7 7 9 11 14 15 17 18 20 22 24 23 24 28 31 28 26 29 27 23 22 19 17 15 14 14 14 16 15 15 17 18 18 17 16 15 13 12 14 16 16 17 15 14 13 13 14 15 21 19 14 14 14 13 13 11 11 13 14 17 28 36 42 48 54 64 64 57 54 53 53 51
9 9 9 8 8 8 8 9 9 9 9 8 9 8 7 7 7 7 7 9 11 14 17 19 21 22 24 25 27 31 33 30 27 27 24 22 22 19 17 16 16 16 17 18 15 15 17 17 16 15 15 14 13 12 14 16 16 17 15 15 15 14 15 15 16 16 15 14 13 11 12 13 11 13 14 19 31 37 44 51 56 65 65 56 50 50 52 49
10 10 9 9 9 9 8 9 9 9 9 8 9 9 8 8 7 7 7 8 9 13 16 18 20 22 23 24 29 33 35 33 30 28 25 22 23 21 17 15 16 16 18 19 15 16 17 16 15 15 15 15 14 13 14 15 15 17 16 15 15 15 17 16 15 15 15 13 12 11 10 12 10 12 14 17 25 32 41 49 52 56 60 56 49 47 49 46
11 11 11 10 10 10 9 9 8 9 9 8 9 9 10 9 8 8 7 8 9 11 14 17 20 22 23 24 30 34 35 34 30 29 26 22 23 22 18 16 16 18 20 19 16 16 17 15 15 14 14 15 16 15 15 15 14 16 16 15 15 16 16 15 15 16 15 13 12 11 10 10 10 12 13 14 20 27 34 40 42 47 53 53 49 46 45 44
10 10 11 11 11 11 11 10 9 9 9 9 9 10 10 10 9 9 7 8 9 10 12 14 18 21 21 24 30 31 31 33 33 30 26 23 24 23 21 19 16 18 21 19 17 17 17 16 15 15 15 14 15 16 16 15 15 16 16 16 16 16 16 14 16 16 15 12 12 11 10 11 11 12 12 12 18 24 27 31 36 42 47 46 44 43 41 40
10 10 10 10 10 11 11 11 10 10 10 9 9 10 11 11 10 9 9 9 9 9 11 13 16 18 20 26 28 24 27 31 32 31 28 25 25 24 22 21 18 16 18 19 19 18 17 17 16 15 17 17 16 16 17 17 15 16 16 17 17 16 15 14 15 16 15 12 12 12 11 11 12 12 12 10 17 25 23 25 33 38 40 41 41 41 40 38
12 11 10 10 9 10 10 11 11 11 11 10 10 10 11 13 13 12 11 10 10 10 10 12 14 14 22 30 24 20 25 28 28 29 29 26 24 24 22 22 21 17 17 20 20 18 17 17 16 16 16 19 19 16 16 16 16 16 17 17 17 16 15 13 14 15 14 13 13 12 12 12 12 11 12 12 19 27 23 23 31 37 38 41 42 39 39 39
13 12 12 11 10 9 9 9 10 10 11 11 11 11 11 13 14 15 14 14 13 12 11 12 13 14 25 29 20 20 25 25 25 26 27 26 23 23 22 22 23 19 19 21 21 21 19 16 16 16 16 18 18 18 18 17 16 16 17 17 17 16 14 13 13 14 14 13 13 13 13 12 12 11 11 12 17 22 23 23 28 35 40 43 45 43 42 41
12 12 13 12 12 12 10 10 9 9 10 10 10 10 11 12 15 16 16 16 16 16 15 14 14 18 26 26 19 22 24 22 24 25 26 27 24 25 25 22 22 22 22 21 21 22 19 17 16 15 16 16 16 19 23 20 16 16 16 16 15 14 14 12 12 13 13 13 13 13 13 12 11 12 11 12 17 19 21 23 24 31 40 46 48 46 43 40
12 12 12 12 12 12 12 12 10 9 9 9 10 10 11 11 13 15 16 17 17 18 19 19 22 24 27 27 23 24 24 22 22 23 26 28 27 28 28 25 23 23 21 19 20 20 19 17 15 14 15 16 17 19 23 21 17 16 15 15 14 13 12 11 12 14 13 12 13 12 12 12 12 14 15 15 18 20 21 23 24 28 40 49 48 44 40 38
12 12 12 11 11 12 12 13 12 11 10 9 9 9 10 11 12 13 15 17 18 20 21 23 28 28 29 28 24 25 26 26 25 23 26 28 28 31 31 28 26 23 21 19 18 19 18 16 15 15 14 16 19 19 20 21 18 15 15 14 12 12 11 10 12 16 17 15 15 14 12 12 13 17 21 19 18 22 25 26 27 28 40 50 50 46 38 37
12 12 12 11 11 11 11 12 12 12 12 11 10 9 9 9 10 12 15 17 21 25 25 27 29 28 31 31 26 28 29 30 29 26 27 28 28 32 32 28 27 24 22 21 19 17 17 16 15 16 15 16 19 20 19 18 17 16 17 16 12 11 11 11 12 16 18 17 17 17 14 12 14 18 22 20 20 28 29 27 27 29 40 50 52 49 37 36
12 12 11 11 10 10 11 11 11 12 12 12 12 11 9 10 15 20 24 27 29 31 30 35 36 30 33 35 31 30 27 28 30 28 30 31 30 32 31 27 26 24 22 22 20 17 17 16 16 16 16 16 17 21 18 14 18 22 24 23 18 12 11 13 14 14 16 16 17 19 16 13 14 18 24 25 25 30 31 27 26 27 34 43 44 41 36 35
12 12 11 11 11 10 11 10 11 11 11 12 12 12 14 18 25 34 39 37 35 32 29 33 36 30 30 33 32 30 27 29 30 29 32 33 31 31 28 25 24 23 22 21 19 17 17 17 17 16 16 17 18 19 17 16 23 28 30 29 24 17 15 16 15 13 16 17 18 19 17 14 13 16 22 29 27 26 30 28 26 26 27 35 40 39 36 34
13 12 12 11 10 11 10 10 10 10 10 11 11 14 18 20 25 31 34 31 28 28 24 24 28 28 28 31 36 36 31 30 30 29 33 33 30 29 26 22 22 22 20 19 20 18 17 18 17 16 18 20 22 20 17 18 23 27 31 31 26 21 18 17 16 15 18 20 21 20 18 15 15 16 19 25 27 24 26 26 26 26 24 31 41 41 35 35
12 11 10 10 10 10 9 10 10 10 11 11 10 12 15 17 21 22 21 20 18 22 21 19 23 26 27 29 34 37 32 31 29 28 32 32 28 26 23 20 20 19 16 18 24 24 19 17 17 19 22 22 23 23 19 20 22 24 29 30 27 24 18 18 19 17 20 22 22 24 23 17 16 20 19 21 28 26 24 24 24 25 26 32 41 40 35 42
13 12 11 10 9 9 9 9 8 9 10 10 10 11 13 16 18 17 17 17 17 18 19 19 22 25 28 29 29 31 32 31 29 28 30 29 26 23 21 19 17 18 17 18 26 28 23 20 18 19 24 23 23 26 25 23 22 22 26 27 25 26 20 18 21 21 23 27 25 26 27 21 21 22 18 19 27 28 27 26 24 26 32 35 39 41 41 50
15 14 14 13 12 11 10 8 9 11 11 11 10 10 13 15 15 16 17 17 16 17 17 18 23 26 27 30 29 29 31 30 29 32 32 27 25 22 20 18 16 17 19 20 25 29 27 25 24 21 22 24 25 28 27 24 22 20 23 24 23 27 24 20 24 25 26 28 27 28 27 26 26 23 19 23 28 30 31 29 25 28 36 38 40 47 52 55
16 15 15 15 14 14 11 11 18 18 14 15 12 13 17 16 16 18 18 20 19 20 21 21 23 26 26 28 28 28 30 27 28 37 35 26 24 22 18 18 17 17 19 21 24 26 28 29 30 27 24 26 28 28 26 22 20 19 20 20 20 26 26 23 25 28 30 30 29 31 30 27 25 21 22 28 29 28 30 29 26 30 39 42 45 51 54 57
17 16 16 16 15 16 14 17 25 22 15 17 15 16 21 18 18 19 21 30 29 25 28 27 25 26 26 27 27 26 29 26 25 38 38 27 24 22 19 20 19 17 19 22 24 24 26 28 30 29 27 28 29 27 24 20 18 18 18 17 16 21 27 28 28 30 32 33 35 38 33 27 24 23 26 28 30 32 32 32 32 34 40 47 52 55 58 66
18 18 17 17 16 17 16 19 24 20 17 24 24 19 18 16 18 21 27 36 32 25 29 31 28 30 30 29 27 25 28 27 24 33 37 29 24 21 21 22 21 20 21 24 27 27 25 25 27 28 28 30 28 23 20 18 17 17 17 19 16 16 23 29 32 33 35 35 39 41 34 26 24 29 31 28 32 39 38 34 35 37 44 52 58 58 59 71
19 19 18 18 18 17 18 19 21 19 19 26 26 21 16 16 18 24 36 41 29 24 31 32 31 33 33 33 30 24 28 31 26 28 32 29 26 23 22 23 22 22 23 24 29 29 24 24 27 28 28 28 25 21 19 19 18 16 18 25 26 20 18 26 33 36 38 38 40 40 35 30 26 27 31 29 32 41 41 36 34 40 51 59 61 60 62 70
18 18 17 17 17 18 21 20 20 20 20 22 23 21 18 19 20 27 44 47 31 25 32 35 36 34 31 32 32 26 28 34 30 28 32 29 26 25 23 23 23 23 23 24 27 30 28 25 24 26 26 23 22 20 18 19 19 16 17 25 31 27 18 23 32 34 36 38 39 39 38 36 32 28 29 31 34 39 40 38 35 39 53 62 65 67 67 64
16 15 16 15 14 19 23 21 21 23 22 24 26 24 21 22 27 37 47 43 30 27 32 36 39 37 31 31 31 25 27 34 31 31 36 31 25 26 24 23 23 23 24 23 24 28 30 27 23 23 23 20 20 21 19 19 18 17 19 22 27 28 22 21 26 30 36 36 34 35 37 39 39 34 33 34 36 37 39 42 42 42 50 57 60 60 58 56
13 13 14 14 12 15 18 18 23 27 28 30 29 24 21 23 32 44 45 34 25 27 30 32 36 36 32 31 30 26 27 33 34 36 40 35 28 26 24 24 23 24 26 24 22 23 24 25 25 24 21 20 21 23 23 22 19 19 23 26 30 32 27 24 26 30 35 33 29 32 37 41 41 38 38 39 40 42 43 48 49 50 53 55 52 48 49 53
10 10 10 11 10 11 11 13 20 25 27 30 29 24 25 30 35 39 37 31 27 27 29 31 33 35 34 33 32 28 28 32 35 39 41 37 33 26 23 24 24 25 27 25 23 23 21 22 24 24 22 20 22 25 27 26 21 20 23 27 35 40 36 33 33 33 33 28 25 32 40 43 40 38 40 42 44 46 45 48 53 55 58 60 56 50 49 53
7 8 6 7 6 6 7 7 11 17 18 23 26 26 30 36 37 34 30 30 31 31 32 34 37 39 37 37 36 32 30 31 34 39 41 38 35 29 23 22 23 25 27 27 26 24 23 21 22 25 23 22 23 25 28 28 23 20 21 25 34 42 42 38 36 36 35 30 26 30 38 44 44 43 44 46 49 51 49 51 54 52 54 59 58 53 53 55
7 6 5 5 5 5 6 6 9 12 12 17 23 28 36 40 36 32 29 27 28 30 33 35 38 42 41 40 40 37 33 32 35 39 41 39 37 34 29 24 23 24 26 27 28 26 26 24 23 24 23 22 22 22 25 30 26 19 19 25 34 40 42 41 38 38 39 35 33 33 36 44 53 54 50 48 48 49 52 56 56 50 48 50 49 48 52 55
7 7 8 8 9 9 7 9 14 13 10 13 18 25 36 39 34 33 32 29 26 27 30 33 36 40 43 43 43 44 39 36 39 39 40 40 37 35 33 28 24 24 25 27 29 28 27 27 26 24 22 22 21 19 21 29 32 25 17 22 33 38 40 42 42 41 42 39 38 41 40 42 51 56 53 50 46 45 51 56 56 54 53 52 50 49 51 53
9 15 16 14 18 18 15 16 18 16 13 14 17 21 26 28 29 31 32 30 28 27 30 35 35 36 40 41 41 44 45 42 43 44 43 41 38 35 33 31 28 25 25 26 28 29 29 31 33 30 25 23 22 21 20 24 35 37 25 21 29 34 38 45 45 40 41 42 40 43 48 48 49 52 50 46 45 48 52 55 55 57 58 59 59 57 56 57
10 18 19 21 26 23 19 19 19 18 15 15 20 21 18 18 22 27 30 31 31 31 34 37 36 35 37 37 36 38 45 48 46 47 48 44 40 38 34 34 32 28 26 27 29 31 32 35 40 38 33 28 23 22 21 20 28 39 36 29 30 35 37 42 47 44 45 45 39 38 47 49 48 50 48 43 44 50 54 56 57 58 59 62 63 60 63 67
9 15 20 26 29 24 18 18 19 18 15 16 23 23 16 15 17 21 28 31 33 37 37 36 38 38 36 37 36 35 41 49 48 48 51 49 47 46 42 41 40 33 28 28 31 34 36 39 43 41 38 35 28 23 24 22 22 32 40 35 35 43 44 41 44 48 51 49 41 36 37 40 44 48 48 48 48 51 54 55 57 60 61 65 67 66 65 65
16 25 33 36 34 28 22 21 20 17 15 18 22 20 15 14 15 20 28 32 36 41 39 37 38 39 38 36 37 37 38 44 51 53 53 52 53 52 49 49 51 44 36 32 32 35 38 42 44 42 39 39 35 29 28 27 25 29 36 35 37 43 46 44 44 44 47 48 45 37 32 42 54 52 49 53 55 55 56 57 58 60 61 62 64 63 59 56
29 37 45 46 41 32 25 25 23 19 20 22 20 16 15 14 14 17 24 30 39 43 40 38 39 39 38 35 35 39 39 43 55 61 58 55 55 54 53 53 55 52 46 41 37 36 39 43 46 45 42 40 40 37 33 32 32 33 34 34 36 40 41 43 43 41 40 41 43 41 40 52 63 56 47 52 57 56 58 63 64 63 62 61 61 61 57 55
33 41 52 51 40 26 21 25 26 23 25 24 17 14 15 19 20 18 20 26 35 41 41 39 40 39 39 38 36 39 42 44 53 62 62 59 58 57 56 56 56 55 54 51 45 43 43 43 43 45 44 42 42 43 40 36 36 38 36 33 34 39 43 45 44 42 40 38 40 43 49 58 61 55 50 52 55 55 57 62 65 65 65 65 65 65 62 59
38 47 53 44 29 21 22 32 36 36 37 30 25 23 18 19 22 22 26 29 30 36 40 41 39 37 37 39 40 40 42 45 50 56 60 64 66 62 56 55 55 56 60 57 51 50 50 47 44 44 46 47 47 46 44 41 39 38 38 35 35 36 38 42 47 49 48 44 41 41 47 57 57 55 56 54 54 57 60 61 63 63 64 66 68 68 65 60
44 47 46 40 30 23 27 40 44 45 47 42 40 39 32 25 23 23 28 33 32 34 38 41 39 36 35 36 38 41 42 44 48 51 55 63 68 64 57 54 54 55 61 60 55 53 51 49 49 49 50 50 50 47 43 42 42 41 40 40 41 40 38 40 48 53 52 48 46 45 49 58 59 58 60 58 56 59 62 63 63 63 63 66 69 66 61 59
41 42 44 45 37 30 36 49 52 54 57 54 51 47 42 37 33 29 31 34 37 37 38 39 37 35 35 33 34 40 42 42 45 48 54 59 62 61 55 53 55 59 62 62 59 56 53 51 52 53 56 57 56 54 50 48 47 44 42 42 43 44 44 45 48 51 51 48 45 48 55 61 61 61 62 63 63 65 67 68 68 67 65 64 63 59 56 55
40 42 43 44 42 39 45 53 53 56 60 61 61 55 50 48 43 38 36 36 38 39 37 39 37 37 39 34 30 35 41 45 44 46 54 59 57 57 54 51 56 61 62 60 59 56 55 55 53 53 59 62 65 67 62 55 52 48 46 46 46 45 46 49 52 53 52 50 47 52 61 63 61 63 66 65 66 70 71 72 72 68 63 60 57 54 53 52
36 37 34 34 37 39 47 54 52 53 58 61 63 60 56 57 54 47 42 40 40 41 41 42 41 41 43 39 34 32 35 41 43 44 52 57 57 58 57 54 56 59 60 61 60 57 57 59 57 57 58 58 65 72 66 58 57 56 52 49 49 51 49 49 53 54 52 53 56 58 63 66 66 68 71 70 72 75 76 76 76 72 67 64 61 58 57 57
31 33 32 29 34 40 47 53 48 49 56 57 58 61 59 57 59 58 52 45 42 43 45 46 46 47 47 45 45 40 35 36 40 40 45 52 57 59 58 58 59 58 60 61 61 60 60 60 59 58 57 55 59 64 61 58 59 58 57 56 55 55 55 53 54 56 54 57 65 67 66 70 75 74 73 74 75 78 78 77 79 81 79 75 72 69 66 64
29 35 35 32 43 51 50 51 49 48 52 53 54 61 62 58 58 62 59 51 45 44 48 49 48 48 45 44 46 44 38 35 36 38 43 48 52 55 57 58 60 59 56 54 54 56 58 58 57 56 55 55 55 54 54 57 57 56 58 62 62 59 60 62 62 60 57 58 67 72 70 74 78 75 72 72 73 77 80 80 81 84 84 81 78 75 70 66
28 32 37 38 49 57 57 62 66 56 49 50 53 57 65 67 63 60 60 58 53 49 51 53 49 44 41 42 45 48 48 44 40 43 49 51 51 53 55 59 63 60 52 51 54 53 54 58 59 57 55 53 51 51 52 53 55 55 56 61 66 66 66 67 66 66 67 68 70 71 71 76 77 75 73 70 68 71 76 79 81 82 83 81 79 80 79 73
22 23 36 44 47 51 56 64 69 62 50 46 49 56 65 68 63 58 58 61 62 58 54 56 53 48 48 49 51 56 58 53 47 47 49 49 51 54 56 59 64 62 55 57 62 59 57 61 62 60 59 55 52 52 53 53 53 56 57 60 66 70 72 72 71 74 80 83 79 71 71 75 75 74 73 65 62 66 69 71 74 75 79 80 78 81 85 80
21 22 35 45 42 46 58 63 66 66 59 51 51 55 61 64 63 59 54 54 61 61 56 56 56 54 57 59 57 58 57 49 45 45 43 43 47 51 54 55 58 60 60 62 66 66 65 65 63 62 61 58 57 55 55 57 58 58 58 61 65 69 71 72 73 75 80 84 83 76 75 75 72 70 68 62 63 69 72 73 73 72 76 78 74 76 81 80
26 29 39 47 44 46 60 64 64 70 71 67 61 55 54 59 60 58 56 52 53 53 52 53 55 53 54 57 56 55 51 45 42 40 38 38 40 44 49 50 50 55 60 63 67 72 71 65 62 63 60 57 59 62 61 63 64 64 60 59 61 63 65 68 72 73 74 76 79 79 81 79 71 68 68 67 71 77 77 78 77 76 77 77 74 75 76 74